Time,TemperatureF,DewpointF,PressureIn,WindDirection,WindDirectionDegrees,WindSpeedMPH,WindSpeedGustMPH,Humidity,HourlyPrecipIn,Conditions,Clouds,dailyrainin,SoftwareType,DateUTC
2013-05-26 00:03:00,49.2,45.8,30.13,SE,140,14.3,26.4,88,0.00,,,0.00,CWS Microserver 1.4,2013-05-26 05:03:00,
2013-05-26 00:08:00,49.2,45.5,30.13,ESE,118,17.4,28.4,87,0.00,,,0.00,CWS Microserver 1.4,2013-05-26 05:08:00,
2013-05-26 00:13:00,49.4,45.6,30.13,SE,125,17.9,28.9,86,0.00,,,0.00,CWS Microserver 1.4,2013-05-26 05:13:00,
2013-05-26 00:18:00,49.4,45.8,30.14,ESE,122,10.3,28.9,87,0.00,,,0.00,CWS Microserver 1.4,2013-05-26 05:18:00,
2013-05-26 00:23:00,49.4,45.7,30.14,SE,141,19.6,23.8,87,0.00,,,0.00,CWS Microserver 1.4,2013-05-26 05:23:00,
2013-05-26 00:28:00,49.6,45.7,30.15,SE,140,16.6,27.8,86,0.00,,,0.00,CWS Microserver 1.4,2013-05-26 05:28:00,
2013-05-26 00:33:00,49.8,45.8,30.14,SE,134,14.0,27.8,86,0.00,,,0.00,CWS Microserver 1.4,2013-05-26 05:33:00,
2013-05-26 00:38:00,49.8,45.8,30.13,SE,139,14.3,25.6,86,0.00,,,0.00,CWS Microserver 1.4,2013-05-26 05:38:00,
2013-05-26 00:43:00,49.6,45.6,30.12,ESE,120,9.7,25.6,86,0.00,,,0.00,CWS Microserver 1.4,2013-05-26 05:43:00,
2013-05-26 00:48:00,49.6,45.5,30.13,SE,125,19.2,25.1,85,0.00,,,0.00,CWS Microserver 1.4,2013-05-26 05:48:00,
2013-05-26 00:53:00,49.6,45.7,30.13,SE,125,17.3,25.1,86,0.00,,,0.00,CWS Microserver 1.4,2013-05-26 05:53:00,
2013-05-26 00:58:00,49.8,45.8,30.13,SE,136,13.6,25.5,86,0.00,,,0.00,CWS Microserver 1.4,2013-05-26 05:58:00,
2013-05-26 01:03:00,49.8,45.8,30.12,SE,130,12.4,25.5,86,0.00,,,0.00,CWS Microserver 1.4,2013-05-26 06:03:00,
2013-05-26 01:08:00,49.8,45.9,30.11,SE,124,14.1,21.4,86,0.00,,,0.00,CWS Microserver 1.4,2013-05-26 06:08:00,
2013-05-26 01:13:00,49.6,45.7,30.11,SE,132,13.9,22.5,86,0.00,,,0.00,CWS Microserver 1.4,2013-05-26 06:13:00,
2013-05-26 01:18:00,49.8,45.8,30.12,ESE,121,13.0,22.5,86,0.00,,,0.00,CWS Microserver 1.4,2013-05-26 06:18:00,
2013-05-26 01:23:00,49.8,45.8,30.13,SE,139,16.8,23.1,86,0.00,,,0.00,CWS Microserver 1.4,2013-05-26 06:23:00,
2013-05-26 01:28:00,49.8,45.6,30.13,SE,129,13.4,25.5,85,0.00,,,0.00,CWS Microserver 1.4,2013-05-26 06:28:00,
2013-05-26 01:33:00,50.0,45.9,30.13,SE,146,14.2,25.5,85,0.00,,,0.00,CWS Microserver 1.4,2013-05-26 06:33:00,
2013-05-26 01:38:00,50.0,45.8,30.12,SE,145,13.2,23.9,85,0.00,,,0.00,CWS Microserver 1.4,2013-05-26 06:38:00,
2013-05-26 01:43:00,49.8,45.6,30.11,SE,126,17.8,21.7,85,0.00,,,0.00,CWS Microserver 1.4,2013-05-26 06:43:00,
2013-05-26 01:48:00,49.8,45.6,30.11,SE,145,13.4,22.7,85,0.00,,,0.00,CWS Microserver 1.4,2013-05-26 06:48:00,
2013-05-26 01:53:00,49.8,45.7,30.12,SE,141,11.7,22.7,85,0.00,,,0.00,CWS Microserver 1.4,2013-05-26 06:53:00,
2013-05-26 01:58:00,49.8,45.6,30.11,SE,130,14.7,22.9,85,0.00,,,0.00,CWS Microserver 1.4,2013-05-26 06:58:00,
2013-05-26 02:03:00,49.8,45.6,30.10,SE,127,11.6,22.9,85,0.00,,,0.00,CWS Microserver 1.4,2013-05-26 07:03:00,
2013-05-26 02:08:00,49.8,45.5,30.11,SSE,153,18.3,21.8,85,0.00,,,0.00,CWS Microserver 1.4,2013-05-26 07:08:00,
2013-05-26 02:13:00,50.0,45.7,30.12,SE,146,11.8,22.3,85,0.00,,,0.00,CWS Microserver 1.4,2013-05-26 07:13:00,
2013-05-26 02:18:00,50.0,45.6,30.12,SSE,149,15.1,22.3,84,0.00,,,0.00,CWS Microserver 1.4,2013-05-26 07:18:00,
2013-05-26 02:23:00,50.0,45.8,30.12,SE,142,9.8,19.9,85,0.00,,,0.00,CWS Microserver 1.4,2013-05-26 07:23:00,
2013-05-26 02:28:00,50.0,45.7,30.12,SSE,149,15.5,21.3,85,0.00,,,0.00,CWS Microserver 1.4,2013-05-26 07:28:00,
2013-05-26 02:33:00,50.0,45.8,30.13,SE,139,11.6,21.3,85,0.00,,,0.00,CWS Microserver 1.4,2013-05-26 07:33:00,
2013-05-26 02:38:00,50.0,45.8,30.12,SE,143,9.0,20.0,85,0.00,,,0.00,CWS Microserver 1.4,2013-05-26 07:38:00,
2013-05-26 02:43:00,50.0,45.6,30.12,ESE,121,12.1,17.6,84,0.00,,,0.00,CWS Microserver 1.4,2013-05-26 07:43:00,
2013-05-26 02:48:00,49.8,45.5,30.12,SE,125,9.4,17.6,85,0.00,,,0.00,CWS Microserver 1.4,2013-05-26 07:48:00,
2013-05-26 02:53:00,49.8,45.7,30.12,ESE,121,8.5,17.5,85,0.02,,,0.02,CWS Microserver 1.4,2013-05-26 07:53:00,
2013-05-26 02:58:00,49.6,45.8,30.11,ESE,103,11.1,17.5,86,0.04,,,0.04,CWS Microserver 1.4,2013-05-26 07:58:00,
2013-05-26 03:03:00,49.4,45.7,30.11,SE,128,10.4,16.4,86,0.05,,,0.05,CWS Microserver 1.4,2013-05-26 08:03:00,
2013-05-26 03:08:00,49.4,45.5,30.10,ESE,119,13.0,17.5,86,0.06,,,0.06,CWS Microserver 1.4,2013-05-26 08:08:00,
2013-05-26 03:13:00,49.4,45.7,30.10,SE,139,11.1,21.9,86,0.07,,,0.07,CWS Microserver 1.4,2013-05-26 08:13:00,
2013-05-26 03:18:00,49.2,45.7,30.11,SE,146,9.9,21.9,87,0.07,,,0.07,CWS Microserver 1.4,2013-05-26 08:18:00,
2013-05-26 03:23:00,49.1,45.7,30.10,SE,139,10.4,19.5,88,0.08,,,0.08,CWS Microserver 1.4,2013-05-26 08:23:00,
2013-05-26 03:28:00,49.1,45.6,30.09,SE,127,14.7,22.3,87,0.08,,,0.08,CWS Microserver 1.4,2013-05-26 08:28:00,
2013-05-26 03:33:00,49.1,45.9,30.09,ESE,117,11.8,22.3,88,0.08,,,0.08,CWS Microserver 1.4,2013-05-26 08:33:00,
2013-05-26 03:38:00,48.7,45.8,30.08,SE,130,18.2,22.4,89,0.14,,,0.14,CWS Microserver 1.4,2013-05-26 08:38:00,
2013-05-26 03:43:00,48.9,45.8,30.07,SE,139,18.5,24.7,88,0.16,,,0.16,CWS Microserver 1.4,2013-05-26 08:43:00,
2013-05-26 03:48:00,48.9,45.6,30.07,SE,136,17.3,26.3,88,0.18,,,0.18,CWS Microserver 1.4,2013-05-26 08:48:00,
2013-05-26 03:53:00,48.9,45.7,30.08,SSE,150,18.6,28.0,88,0.21,,,0.23,CWS Microserver 1.4,2013-05-26 08:53:00,
2013-05-26 03:58:00,48.9,45.7,30.08,SE,137,20.5,28.0,88,0.23,,,0.27,CWS Microserver 1.4,2013-05-26 08:58:00,
2013-05-26 04:03:00,48.9,45.7,30.09,SSE,148,18.8,27.3,88,0.25,,,0.30,CWS Microserver 1.4,2013-05-26 09:03:00,
2013-05-26 04:08:00,49.1,45.8,30.09,SSE,150,21.0,30.3,88,0.27,,,0.33,CWS Microserver 1.4,2013-05-26 09:08:00,
2013-05-26 04:13:00,48.9,45.6,30.09,SE,142,18.4,30.3,88,0.29,,,0.36,CWS Microserver 1.4,2013-05-26 09:13:00,
2013-05-26 04:18:00,48.9,45.6,30.09,SSE,155,20.2,26.1,88,0.32,,,0.39,CWS Microserver 1.4,2013-05-26 09:18:00,
2013-05-26 04:23:00,48.9,45.5,30.09,SSE,155,23.7,26.8,88,0.35,,,0.43,CWS Microserver 1.4,2013-05-26 09:23:00,
2013-05-26 04:28:00,48.9,45.6,30.09,SSE,156,23.1,26.8,88,0.38,,,0.46,CWS Microserver 1.4,2013-05-26 09:28:00,
2013-05-26 04:33:00,48.9,45.6,30.08,SE,142,20.3,26.6,88,0.40,,,0.48,CWS Microserver 1.4,2013-05-26 09:33:00,
2013-05-26 04:38:00,48.9,45.7,30.07,SSE,155,23.4,26.6,88,0.38,,,0.52,CWS Microserver 1.4,2013-05-26 09:38:00,
2013-05-26 04:48:00,48.7,45.7,30.06,SE,145,19.0,26.6,89,0.39,,,0.57,CWS Microserver 1.4,2013-05-26 09:48:00,
2013-05-26 04:53:00,48.7,45.6,30.06,SE,140,18.9,26.6,89,0.36,,,0.59,CWS Microserver 1.4,2013-05-26 09:53:00,
2013-05-26 04:58:00,48.7,45.8,30.06,SE,145,16.1,24.7,89,0.34,,,0.61,CWS Microserver 1.4,2013-05-26 09:58:00,
2013-05-26 05:03:00,48.7,45.7,30.07,SSE,147,19.7,24.8,89,0.34,,,0.64,CWS Microserver 1.4,2013-05-26 10:03:00,
2013-05-26 05:08:00,48.7,45.6,30.07,SSE,149,15.6,26.8,88,0.34,,,0.67,CWS Microserver 1.4,2013-05-26 10:08:00,
2013-05-26 05:13:00,48.7,45.7,30.08,SSE,148,15.1,26.8,89,0.34,,,0.70,CWS Microserver 1.4,2013-05-26 10:13:00,
2013-05-26 05:18:00,48.7,45.9,30.11,SE,135,8.5,26.2,90,0.33,,,0.72,CWS Microserver 1.4,2013-05-26 10:18:00,
2013-05-26 05:23:00,48.9,46.1,30.13,ESE,114,6.7,21.1,89,0.31,,,0.74,CWS Microserver 1.4,2013-05-26 10:23:00,
2013-05-26 05:28:00,48.9,45.9,30.13,SE,124,11.2,14.6,89,0.32,,,0.78,CWS Microserver 1.4,2013-05-26 10:28:00,
2013-05-26 05:33:00,48.9,45.9,30.13,SSE,148,11.2,15.2,89,0.33,,,0.81,CWS Microserver 1.4,2013-05-26 10:33:00,
2013-05-26 05:38:00,48.9,45.9,30.12,SE,140,11.0,15.2,89,0.32,,,0.84,CWS Microserver 1.4,2013-05-26 10:38:00,
2013-05-26 05:43:00,48.9,46.0,30.12,SE,125,11.8,16.2,89,0.34,,,0.88,CWS Microserver 1.4,2013-05-26 10:43:00,
2013-05-26 05:48:00,48.9,45.9,30.12,SE,124,7.8,16.2,89,0.35,,,0.92,CWS Microserver 1.4,2013-05-26 10:48:00,
2013-05-26 05:53:00,48.9,46.1,30.12,SE,134,14.4,15.8,89,0.37,,,0.96,CWS Microserver 1.4,2013-05-26 10:53:00,
2013-05-26 05:58:00,48.7,46.0,30.12,SE,137,12.9,18.6,90,0.40,,,1.01,CWS Microserver 1.4,2013-05-26 10:58:00,
2013-05-26 06:03:00,48.7,46.0,30.12,SE,132,12.1,18.9,90,0.42,,,1.06,CWS Microserver 1.4,2013-05-26 11:03:00,
2013-05-26 06:08:00,48.5,45.9,30.12,SE,142,15.6,18.9,90,0.44,,,1.11,CWS Microserver 1.4,2013-05-26 11:08:00,
2013-05-26 06:18:00,48.5,45.9,30.11,SE,131,9.2,20.3,90,0.53,,,1.25,CWS Microserver 1.4,2013-05-26 11:18:00,
2013-05-26 06:23:00,48.5,45.9,30.10,SE,128,13.6,20.7,90,0.63,,,1.37,CWS Microserver 1.4,2013-05-26 11:23:00,
2013-05-26 06:28:00,48.3,45.8,30.10,ESE,122,13.8,20.7,90,0.69,,,1.47,CWS Microserver 1.4,2013-05-26 11:28:00,
2013-05-26 06:33:00,48.3,45.8,30.09,East,98,13.4,20.7,91,0.76,,,1.57,CWS Microserver 1.4,2013-05-26 11:33:00,
2013-05-26 06:38:00,48.3,45.9,30.09,SE,130,14.2,20.1,91,0.83,,,1.67,CWS Microserver 1.4,2013-05-26 11:38:00,
2013-05-26 06:43:00,48.3,45.9,30.09,East,101,8.6,21.4,91,0.84,,,1.72,CWS Microserver 1.4,2013-05-26 11:43:00,
2013-05-26 06:48:00,48.3,45.9,30.09,SE,125,13.2,21.4,91,0.84,,,1.76,CWS Microserver 1.4,2013-05-26 11:48:00,
2013-05-26 06:53:00,48.3,45.8,30.09,ESE,123,15.9,21.4,91,0.82,,,1.78,CWS Microserver 1.4,2013-05-26 11:53:00,
2013-05-26 06:58:00,48.5,45.9,30.10,SSE,152,17.1,21.4,90,0.78,,,1.79,CWS Microserver 1.4,2013-05-26 11:58:00,
2013-05-26 07:03:00,48.5,45.8,30.10,SSE,155,16.1,23.0,90,0.75,,,1.81,CWS Microserver 1.4,2013-05-26 12:03:00,
2013-05-26 07:08:00,48.7,46.0,30.11,SSE,158,17.0,23.0,90,0.71,,,1.82,CWS Microserver 1.4,2013-05-26 12:08:00,
2013-05-26 07:13:00,48.9,46.2,30.11,SSE,161,17.6,23.2,90,0.64,,,1.82,CWS Microserver 1.4,2013-05-26 12:13:00,
2013-05-26 07:18:00,48.9,46.1,30.09,SE,140,17.1,24.8,90,0.58,,,1.83,CWS Microserver 1.4,2013-05-26 12:18:00,
2013-05-26 07:23:00,48.9,46.0,30.08,SE,142,21.5,24.8,89,0.47,,,1.83,CWS Microserver 1.4,2013-05-26 12:23:00,
2013-05-26 07:28:00,48.9,46.0,30.07,SE,142,21.2,24.7,89,0.36,,,1.83,CWS Microserver 1.4,2013-05-26 12:28:00,
2013-05-26 07:33:00,48.9,46.1,30.07,SSE,151,17.1,24.1,90,0.27,,,1.84,CWS Microserver 1.4,2013-05-26 12:33:00,
2013-05-26 07:38:00,48.7,46.0,30.06,SSE,147,18.7,25.2,90,0.17,,,1.84,CWS Microserver 1.4,2013-05-26 12:38:00,
2013-05-26 07:43:00,48.7,46.0,30.05,SE,141,25.7,25.7,90,0.13,,,1.85,CWS Microserver 1.4,2013-05-26 12:43:00,
2013-05-26 07:48:00,48.9,46.1,30.04,SE,136,23.1,28.6,90,0.10,,,1.85,CWS Microserver 1.4,2013-05-26 12:48:00,
2013-05-26 07:53:00,48.7,46.0,30.04,SE,141,23.7,30.9,90,0.08,,,1.86,CWS Microserver 1.4,2013-05-26 12:53:00,
2013-05-26 07:58:00,48.9,46.1,30.05,SE,132,16.9,31.2,90,0.07,,,1.86,CWS Microserver 1.4,2013-05-26 12:58:00,
2013-05-26 08:03:00,48.9,46.0,30.04,SE,132,15.3,31.2,89,0.05,,,1.86,CWS Microserver 1.4,2013-05-26 13:03:00,
2013-05-26 08:08:00,49.1,46.3,30.05,SE,131,16.0,30.8,90,0.04,,,1.86,CWS Microserver 1.4,2013-05-26 13:08:00,
2013-05-26 08:13:00,49.1,46.4,30.06,SE,125,12.3,30.8,90,0.04,,,1.86,CWS Microserver 1.4,2013-05-26 13:13:00,
2013-05-26 08:18:00,49.1,46.3,30.07,SE,143,14.2,23.3,90,0.03,,,1.86,CWS Microserver 1.4,2013-05-26 13:18:00,
2013-05-26 08:23:00,49.1,46.2,30.06,ESE,121,18.9,22.4,89,0.03,,,1.86,CWS Microserver 1.4,2013-05-26 13:23:00,
2013-05-26 08:28:00,49.2,46.4,30.07,SE,126,13.9,22.4,89,0.03,,,1.86,CWS Microserver 1.4,2013-05-26 13:28:00,
2013-05-26 08:33:00,49.2,46.4,30.07,East,98,7.9,22.2,89,0.02,,,1.86,CWS Microserver 1.4,2013-05-26 13:33:00,
2013-05-26 08:38:00,49.2,46.4,30.09,ESE,102,6.2,20.1,89,0.02,,,1.86,CWS Microserver 1.4,2013-05-26 13:38:00,
2013-05-26 08:43:00,49.2,46.3,30.10,SE,131,10.4,13.8,89,0.01,,,1.86,CWS Microserver 1.4,2013-05-26 13:43:00,
2013-05-26 08:48:00,49.4,46.3,30.10,East,98,10.8,14.3,89,0.01,,,1.86,CWS Microserver 1.4,2013-05-26 13:48:00,
2013-05-26 08:53:00,49.4,46.3,30.09,East,89,7.1,16.2,89,0.00,,,1.86,CWS Microserver 1.4,2013-05-26 13:53:00,
2013-05-26 08:58:00,49.6,46.5,30.09,East,98,9.3,16.2,89,0.00,,,1.86,CWS Microserver 1.4,2013-05-26 13:58:00,
2013-05-26 09:03:00,49.4,46.3,30.08,ESE,108,9.1,16.1,89,0.00,,,1.86,CWS Microserver 1.4,2013-05-26 14:03:00,
2013-05-26 09:08:00,49.4,46.2,30.08,ESE,103,14.2,19.8,88,0.00,,,1.86,CWS Microserver 1.4,2013-05-26 14:08:00,
2013-05-26 09:13:00,49.4,46.2,30.08,ESE,108,9.7,19.8,88,0.00,,,1.86,CWS Microserver 1.4,2013-05-26 14:13:00,
2013-05-26 09:18:00,49.4,46.3,30.09,ESE,102,6.8,18.0,89,0.00,,,1.86,CWS Microserver 1.4,2013-05-26 14:18:00,
2013-05-26 09:23:00,49.4,46.3,30.10,ESE,107,7.4,15.5,89,0.00,,,1.86,CWS Microserver 1.4,2013-05-26 14:23:00,
2013-05-26 09:28:00,49.4,46.5,30.09,ESE,104,8.2,14.5,89,0.00,,,1.86,CWS Microserver 1.4,2013-05-26 14:28:00,
2013-05-26 09:33:00,49.2,46.3,30.08,East,101,14.5,16.4,89,0.00,,,1.86,CWS Microserver 1.4,2013-05-26 14:33:00,
2013-05-26 09:38:00,49.2,46.2,30.08,ESE,105,9.9,18.8,89,0.00,,,1.86,CWS Microserver 1.4,2013-05-26 14:38:00,
2013-05-26 09:43:00,49.2,46.2,30.08,ESE,122,9.7,18.8,89,0.00,,,1.86,CWS Microserver 1.4,2013-05-26 14:43:00,
2013-05-26 09:48:00,49.2,46.3,30.08,East,98,10.7,16.8,89,0.00,,,1.86,CWS Microserver 1.4,2013-05-26 14:48:00,
2013-05-26 09:53:00,49.1,46.2,30.08,East,101,9.5,16.9,89,0.00,,,1.86,CWS Microserver 1.4,2013-05-26 14:53:00,
2013-05-26 09:58:00,48.9,45.9,30.09,East,101,13.2,17.4,89,0.00,,,1.86,CWS Microserver 1.4,2013-05-26 14:58:00,
2013-05-26 10:03:00,48.9,46.0,30.09,East,97,10.4,17.4,89,0.00,,,1.86,CWS Microserver 1.4,2013-05-26 15:03:00,
2013-05-26 10:08:00,48.9,46.0,30.09,East,100,11.6,17.0,89,0.00,,,1.86,CWS Microserver 1.4,2013-05-26 15:08:00,
2013-05-26 10:13:00,48.9,46.0,30.10,ESE,113,7.1,16.8,89,0.00,,,1.86,CWS Microserver 1.4,2013-05-26 15:13:00,
2013-05-26 10:18:00,48.9,45.9,30.10,ESE,109,9.9,16.8,89,0.00,,,1.86,CWS Microserver 1.4,2013-05-26 15:18:00,
2013-05-26 10:23:00,48.9,45.9,30.11,East,89,9.7,14.2,89,0.00,,,1.86,CWS Microserver 1.4,2013-05-26 15:23:00,
2013-05-26 10:28:00,48.9,45.9,30.11,ESE,102,9.1,13.6,89,0.00,,,1.86,CWS Microserver 1.4,2013-05-26 15:28:00,
2013-05-26 10:33:00,49.1,46.3,30.12,East,85,8.2,13.6,89,0.00,,,1.86,CWS Microserver 1.4,2013-05-26 15:33:00,
2013-05-26 10:38:00,49.1,46.1,30.12,East,96,9.3,12.4,89,0.00,,,1.86,CWS Microserver 1.4,2013-05-26 15:38:00,
2013-05-26 10:43:00,49.1,46.0,30.12,East,96,8.3,12.4,89,0.00,,,1.86,CWS Microserver 1.4,2013-05-26 15:43:00,
2013-05-26 10:48:00,49.2,46.3,30.12,East,101,5.4,10.2,89,0.00,,,1.86,CWS Microserver 1.4,2013-05-26 15:48:00,
2013-05-26 10:53:00,49.1,46.1,30.12,ENE,66,5.3,10.5,89,0.00,,,1.86,CWS Microserver 1.4,2013-05-26 15:53:00,
2013-05-26 10:58:00,49.1,46.2,30.13,ENE,66,5.5,10.5,89,0.00,,,1.86,CWS Microserver 1.4,2013-05-26 15:58:00,
2013-05-26 11:03:00,48.9,46.0,30.13,East,90,5.8,8.6,89,0.00,,,1.86,CWS Microserver 1.4,2013-05-26 16:03:00,
2013-05-26 11:08:00,48.9,45.9,30.12,East,84,8.5,10.0,89,0.00,,,1.86,CWS Microserver 1.4,2013-05-26 16:08:00,
2013-05-26 11:13:00,49.1,46.1,30.12,East,84,8.0,10.8,89,0.00,,,1.86,CWS Microserver 1.4,2013-05-26 16:13:00,
2013-05-26 11:18:00,49.1,46.1,30.13,East,88,8.7,10.8,89,0.00,,,1.86,CWS Microserver 1.4,2013-05-26 16:18:00,
2013-05-26 11:23:00,49.1,46.2,30.12,ENE,75,7.1,10.3,89,0.00,,,1.86,CWS Microserver 1.4,2013-05-26 16:23:00,
2013-05-26 11:28:00,49.1,46.2,30.12,East,80,8.2,11.0,89,0.00,,,1.86,CWS Microserver 1.4,2013-05-26 16:28:00,
2013-05-26 11:33:00,49.1,46.0,30.13,East,84,5.3,11.0,89,0.00,,,1.86,CWS Microserver 1.4,2013-05-26 16:33:00,
2013-05-26 11:38:00,49.2,46.4,30.12,East,87,8.9,9.6,90,0.00,,,1.86,CWS Microserver 1.4,2013-05-26 16:38:00,
2013-05-26 11:43:00,49.1,46.2,30.11,East,89,9.8,12.6,89,0.00,,,1.86,CWS Microserver 1.4,2013-05-26 16:43:00,
2013-05-26 11:48:00,49.1,46.2,30.10,ESE,107,10.8,15.7,89,0.00,,,1.86,CWS Microserver 1.4,2013-05-26 16:48:00,
2013-05-26 11:53:00,49.2,46.3,30.10,ESE,106,10.6,16.6,89,0.00,,,1.86,CWS Microserver 1.4,2013-05-26 16:53:00,
2013-05-26 11:58:00,49.2,46.1,30.12,SE,126,9.5,16.6,89,0.00,,,1.86,CWS Microserver 1.4,2013-05-26 16:58:00,
2013-05-26 12:03:00,49.4,46.5,30.11,SE,125,6.5,12.4,89,0.00,,,1.86,CWS Microserver 1.4,2013-05-26 17:03:00,
2013-05-26 12:08:00,49.6,46.6,30.10,ESE,108,12.2,14.4,89,0.00,,,1.86,CWS Microserver 1.4,2013-05-26 17:08:00,
2013-05-26 12:13:00,49.6,46.6,30.09,ESE,109,10.6,18.6,89,0.00,,,1.86,CWS Microserver 1.4,2013-05-26 17:13:00,
2013-05-26 12:18:00,49.8,46.7,30.09,ESE,113,10.2,18.6,89,0.00,,,1.86,CWS Microserver 1.4,2013-05-26 17:18:00,
2013-05-26 12:23:00,49.8,46.7,30.09,ESE,114,9.3,17.2,89,0.00,,,1.86,CWS Microserver 1.4,2013-05-26 17:23:00,
2013-05-26 12:28:00,50.0,46.8,30.09,ESE,119,8.9,17.1,88,0.00,,,1.86,CWS Microserver 1.4,2013-05-26 17:28:00,
2013-05-26 12:33:00,50.1,46.9,30.10,ESE,110,10.1,14.7,88,0.00,,,1.86,CWS Microserver 1.4,2013-05-26 17:33:00,
2013-05-26 12:38:00,50.3,47.1,30.10,ESE,119,6.4,16.6,88,0.00,,,1.86,CWS Microserver 1.4,2013-05-26 17:38:00,
2013-05-26 12:43:00,50.5,47.2,30.10,ESE,117,5.6,16.6,88,0.00,,,1.86,CWS Microserver 1.4,2013-05-26 17:43:00,
2013-05-26 12:48:00,50.7,47.4,30.09,ESE,103,9.0,13.1,88,0.00,,,1.86,CWS Microserver 1.4,2013-05-26 17:48:00,
2013-05-26 12:53:00,50.7,47.3,30.08,ESE,105,11.5,17.1,88,0.00,,,1.86,CWS Microserver 1.4,2013-05-26 17:53:00,
2013-05-26 12:58:00,50.7,47.3,30.08,ESE,114,13.0,18.3,88,0.00,,,1.86,CWS Microserver 1.4,2013-05-26 17:58:00,
2013-05-26 13:03:00,50.9,47.6,30.09,ESE,113,7.3,18.3,88,0.00,,,1.86,CWS Microserver 1.4,2013-05-26 18:03:00,
2013-05-26 13:08:00,51.0,47.7,30.09,ESE,109,7.5,14.0,88,0.00,,,1.86,CWS Microserver 1.4,2013-05-26 18:08:00,
2013-05-26 13:13:00,51.0,47.8,30.10,ESE,122,5.1,13.8,88,0.00,,,1.86,CWS Microserver 1.4,2013-05-26 18:13:00,
2013-05-26 13:18:00,51.2,47.9,30.10,ESE,112,8.0,13.3,88,0.00,,,1.86,CWS Microserver 1.4,2013-05-26 18:18:00,
2013-05-26 13:23:00,51.6,48.5,30.10,ESE,114,9.3,10.8,89,0.00,,,1.86,CWS Microserver 1.4,2013-05-26 18:23:00,
2013-05-26 13:28:00,51.9,48.7,30.11,ESE,113,7.8,11.7,88,0.00,,,1.86,CWS Microserver 1.4,2013-05-26 18:28:00,
2013-05-26 13:33:00,51.9,48.6,30.10,ESE,103,9.0,15.0,88,0.00,,,1.86,CWS Microserver 1.4,2013-05-26 18:33:00,
2013-05-26 13:43:00,52.1,48.7,30.10,East,86,7.5,13.7,88,0.00,,,1.86,CWS Microserver 1.4,2013-05-26 18:43:00,
2013-05-26 13:48:00,52.1,48.6,30.09,ESE,115,9.6,14.8,87,0.00,,,1.86,CWS Microserver 1.4,2013-05-26 18:48:00,
2013-05-26 13:53:00,52.3,48.9,30.08,ESE,103,14.6,17.7,88,0.00,,,1.86,CWS Microserver 1.4,2013-05-26 18:53:00,
2013-05-26 13:58:00,52.5,49.0,30.08,ESE,104,13.7,20.2,87,0.00,,,1.86,CWS Microserver 1.4,2013-05-26 18:58:00,
2013-05-26 14:03:00,52.5,49.0,30.07,ESE,105,13.9,20.2,87,0.00,,,1.86,CWS Microserver 1.4,2013-05-26 19:03:00,
2013-05-26 14:08:00,52.5,48.7,30.07,ESE,109,10.7,20.4,86,0.00,,,1.86,CWS Microserver 1.4,2013-05-26 19:08:00,
2013-05-26 14:13:00,52.5,49.0,30.05,East,98,16.5,20.4,87,0.00,,,1.86,CWS Microserver 1.4,2013-05-26 19:13:00,
2013-05-26 14:18:00,52.3,49.1,30.04,ESE,107,14.0,23.2,88,0.00,,,1.86,CWS Microserver 1.4,2013-05-26 19:18:00,
2013-05-26 14:23:00,52.5,49.2,30.05,ESE,111,13.7,23.2,88,0.00,,,1.86,CWS Microserver 1.4,2013-05-26 19:23:00,
2013-05-26 14:28:00,52.5,49.1,30.04,ESE,106,19.2,21.4,88,0.00,,,1.86,CWS Microserver 1.4,2013-05-26 19:28:00,
2013-05-26 14:33:00,52.5,49.3,30.03,East,94,15.9,24.1,89,0.00,,,1.86,CWS Microserver 1.4,2013-05-26 19:33:00,
2013-05-26 14:38:00,52.5,49.2,30.03,East,87,18.8,24.1,88,0.00,,,1.86,CWS Microserver 1.4,2013-05-26 19:38:00,
2013-05-26 14:43:00,52.5,49.3,30.04,East,98,14.4,23.4,88,0.00,,,1.86,CWS Microserver 1.4,2013-05-26 19:43:00,
2013-05-26 14:48:00,52.7,49.6,30.04,East,89,13.3,19.5,89,0.00,,,1.86,CWS Microserver 1.4,2013-05-26 19:48:00,
2013-05-26 14:53:00,52.7,49.1,30.03,ESE,107,16.8,20.2,87,0.00,,,1.86,CWS Microserver 1.4,2013-05-26 19:53:00,
2013-05-26 14:58:00,52.5,49.4,30.03,ESE,112,9.0,21.4,89,0.00,,,1.86,CWS Microserver 1.4,2013-05-26 19:58:00,
2013-05-26 15:03:00,52.5,49.4,30.02,ESE,109,11.2,21.4,89,0.00,,,1.86,CWS Microserver 1.4,2013-05-26 20:03:00,
2013-05-26 15:08:00,52.5,49.3,30.01,ESE,115,12.3,21.0,88,0.00,,,1.86,CWS Microserver 1.4,2013-05-26 20:08:00,
2013-05-26 15:13:00,52.7,49.4,30.00,SE,128,20.0,23.4,88,0.00,,,1.86,CWS Microserver 1.4,2013-05-26 20:13:00,
2013-05-26 15:18:00,52.7,49.6,29.99,SE,124,20.0,24.8,89,0.00,,,1.86,CWS Microserver 1.4,2013-05-26 20:18:00,
2013-05-26 15:23:00,52.8,49.5,29.98,SE,133,16.3,25.1,88,0.00,,,1.86,CWS Microserver 1.4,2013-05-26 20:23:00,
2013-05-26 15:28:00,53.0,49.7,29.99,SE,134,7.5,25.9,88,0.00,,,1.86,CWS Microserver 1.4,2013-05-26 20:28:00,
2013-05-26 15:33:00,53.0,49.6,30.00,SE,126,13.5,26.0,88,0.00,,,1.86,CWS Microserver 1.4,2013-05-26 20:33:00,
2013-05-26 15:38:00,53.0,49.7,30.00,SE,140,18.7,26.0,88,0.00,,,1.86,CWS Microserver 1.4,2013-05-26 20:38:00,
2013-05-26 15:43:00,53.0,49.8,30.00,SE,124,17.5,24.7,88,0.00,,,1.86,CWS Microserver 1.4,2013-05-26 20:43:00,
2013-05-26 15:48:00,53.2,50.0,30.00,SE,134,17.8,24.7,88,0.00,,,1.86,CWS Microserver 1.4,2013-05-26 20:48:00,
2013-05-26 15:53:00,53.4,50.1,30.00,ESE,117,14.8,22.4,88,0.00,,,1.86,CWS Microserver 1.4,2013-05-26 20:53:00,
2013-05-26 15:58:00,53.6,50.5,30.01,SE,144,9.3,19.4,89,0.00,,,1.86,CWS Microserver 1.4,2013-05-26 20:58:00,
2013-05-26 16:03:00,53.7,50.6,30.01,ESE,111,11.7,18.2,89,0.00,,,1.86,CWS Microserver 1.4,2013-05-26 21:03:00,
2013-05-26 16:08:00,53.6,50.3,30.02,ESE,111,8.9,18.6,88,0.00,,,1.86,CWS Microserver 1.4,2013-05-26 21:08:00,
2013-05-26 16:13:00,53.7,50.3,30.03,ESE,117,9.5,18.8,88,0.00,,,1.86,CWS Microserver 1.4,2013-05-26 21:13:00,
2013-05-26 16:18:00,53.7,50.4,30.03,ESE,123,11.6,20.5,88,0.00,,,1.86,CWS Microserver 1.4,2013-05-26 21:18:00,
2013-05-26 16:23:00,53.7,50.3,30.03,SE,125,14.4,20.5,88,0.00,,,1.86,CWS Microserver 1.4,2013-05-26 21:23:00,
2013-05-26 16:28:00,53.9,50.4,30.03,ESE,118,6.9,19.0,88,0.00,,,1.86,CWS Microserver 1.4,2013-05-26 21:28:00,
2013-05-26 16:33:00,53.9,50.4,30.04,SE,126,13.1,16.8,87,0.00,,,1.86,CWS Microserver 1.4,2013-05-26 21:33:00,
2013-05-26 16:38:00,54.1,50.7,30.04,ESE,111,6.5,16.8,88,0.00,,,1.86,CWS Microserver 1.4,2013-05-26 21:38:00,
2013-05-26 16:43:00,54.1,50.7,30.04,ESE,113,7.4,16.0,88,0.00,,,1.86,CWS Microserver 1.4,2013-05-26 21:43:00,
2013-05-26 16:48:00,54.1,50.6,30.03,ESE,113,12.5,16.0,88,0.00,,,1.86,CWS Microserver 1.4,2013-05-26 21:48:00,
2013-05-26 16:53:00,54.1,50.6,30.03,ESE,123,14.3,15.6,88,0.00,,,1.86,CWS Microserver 1.4,2013-05-26 21:53:00,
2013-05-26 16:58:00,54.3,50.9,30.02,ESE,114,10.4,15.9,88,0.00,,,1.86,CWS Microserver 1.4,2013-05-26 21:58:00,
2013-05-26 17:03:00,54.3,50.9,30.02,SE,127,10.1,15.9,88,0.00,,,1.86,CWS Microserver 1.4,2013-05-26 22:03:00,
2013-05-26 17:08:00,54.3,50.9,30.02,East,99,8.5,16.5,88,0.00,,,1.86,CWS Microserver 1.4,2013-05-26 22:08:00,
2013-05-26 17:13:00,54.3,50.9,30.03,SE,129,14.1,16.5,88,0.00,,,1.86,CWS Microserver 1.4,2013-05-26 22:13:00,
2013-05-26 17:18:00,54.3,50.9,30.04,ESE,117,7.5,15.1,88,0.00,,,1.86,CWS Microserver 1.4,2013-05-26 22:18:00,
2013-05-26 17:23:00,54.1,50.8,30.03,ESE,104,12.1,18.4,88,0.00,,,1.86,CWS Microserver 1.4,2013-05-26 22:23:00,
2013-05-26 17:28:00,54.1,51.0,30.04,ESE,110,10.2,18.4,89,0.00,,,1.86,CWS Microserver 1.4,2013-05-26 22:28:00,
2013-05-26 17:33:00,54.1,51.2,30.04,ESE,114,10.1,18.2,89,0.00,,,1.86,CWS Microserver 1.4,2013-05-26 22:33:00,
2013-05-26 17:38:00,53.9,51.0,30.05,SE,126,18.2,19.2,89,0.00,,,1.86,CWS Microserver 1.4,2013-05-26 22:38:00,
2013-05-26 17:43:00,53.9,51.1,30.05,ESE,118,14.6,19.2,90,0.00,,,1.86,CWS Microserver 1.4,2013-05-26 22:43:00,
2013-05-26 17:48:00,53.9,51.3,30.05,ESE,118,11.2,18.2,90,0.00,,,1.86,CWS Microserver 1.4,2013-05-26 22:48:00,
2013-05-26 17:53:00,53.9,51.4,30.05,ESE,122,14.1,16.0,91,0.00,,,1.86,CWS Microserver 1.4,2013-05-26 22:53:00,
2013-05-26 17:58:00,53.9,51.4,30.05,SE,130,9.8,15.2,91,0.00,,,1.86,CWS Microserver 1.4,2013-05-26 22:58:00,
2013-05-26 18:03:00,53.9,51.3,30.06,ESE,117,9.8,14.9,91,0.00,,,1.86,CWS Microserver 1.4,2013-05-26 23:03:00,
2013-05-26 18:08:00,53.9,51.3,30.06,ESE,118,8.2,15.5,91,0.00,,,1.86,CWS Microserver 1.4,2013-05-26 23:08:00,
2013-05-26 18:13:00,53.9,51.3,30.05,ESE,103,8.2,17.3,90,0.00,,,1.86,CWS Microserver 1.4,2013-05-26 23:13:00,
2013-05-26 18:18:00,53.7,51.0,30.05,ESE,122,11.0,17.8,90,0.00,,,1.86,CWS Microserver 1.4,2013-05-26 23:18:00,
2013-05-26 18:23:00,53.9,51.4,30.06,ESE,119,8.8,17.8,91,0.00,,,1.86,CWS Microserver 1.4,2013-05-26 23:23:00,
2013-05-26 18:28:00,53.7,51.1,30.06,ESE,115,11.4,19.3,90,0.00,,,1.86,CWS Microserver 1.4,2013-05-26 23:28:00,
2013-05-26 18:33:00,53.7,51.0,30.05,ESE,115,7.4,19.3,90,0.00,,,1.86,CWS Microserver 1.4,2013-05-26 23:33:00,
2013-05-26 18:38:00,53.6,51.0,30.05,ESE,114,6.7,17.9,90,0.00,,,1.86,CWS Microserver 1.4,2013-05-26 23:38:00,
2013-05-26 18:43:00,53.6,50.9,30.05,ESE,119,13.6,19.6,90,0.00,,,1.86,CWS Microserver 1.4,2013-05-26 23:43:00,
2013-05-26 18:48:00,53.6,50.9,30.05,East,98,12.3,19.6,90,0.00,,,1.86,CWS Microserver 1.4,2013-05-26 23:48:00,
2013-05-26 18:53:00,53.4,50.8,30.05,ESE,116,13.3,19.0,90,0.00,,,1.86,CWS Microserver 1.4,2013-05-26 23:53:00,
2013-05-26 18:58:00,53.4,50.8,30.06,ESE,113,15.9,19.0,91,0.00,,,1.86,CWS Microserver 1.4,2013-05-26 23:58:00,
2013-05-26 19:03:00,53.2,50.6,30.06,ESE,111,14.6,17.5,90,0.00,,,1.86,CWS Microserver 1.4,2013-05-27 00:03:00,
2013-05-26 19:08:00,53.2,50.6,30.06,ESE,112,9.4,17.5,91,0.00,,,1.86,CWS Microserver 1.4,2013-05-27 00:08:00,
2013-05-26 19:13:00,53.2,50.5,30.06,ESE,112,9.4,19.2,90,0.00,,,1.86,CWS Microserver 1.4,2013-05-27 00:13:00,
2013-05-26 19:18:00,53.0,50.3,30.05,ESE,116,14.6,19.2,90,0.00,,,1.86,CWS Microserver 1.4,2013-05-27 00:18:00,
2013-05-26 19:23:00,53.0,50.3,30.05,ESE,108,11.4,17.0,90,0.00,,,1.86,CWS Microserver 1.4,2013-05-27 00:23:00,
2013-05-26 19:28:00,53.0,50.2,30.05,ESE,115,14.2,19.4,90,0.00,,,1.86,CWS Microserver 1.4,2013-05-27 00:28:00,
2013-05-26 19:33:00,53.0,50.3,30.04,ESE,109,16.3,19.4,90,0.00,,,1.86,CWS Microserver 1.4,2013-05-27 00:33:00,
2013-05-26 19:38:00,52.8,50.0,30.04,ESE,112,16.0,19.5,90,0.00,,,1.86,CWS Microserver 1.4,2013-05-27 00:38:00,
2013-05-26 19:43:00,52.7,49.8,30.04,ESE,109,15.5,20.8,89,0.00,,,1.86,CWS Microserver 1.4,2013-05-27 00:43:00,
2013-05-26 19:48:00,52.5,49.6,30.04,East,100,8.8,20.8,89,0.00,,,1.86,CWS Microserver 1.4,2013-05-27 00:48:00,
2013-05-26 19:53:00,52.5,49.5,30.04,East,92,12.8,20.8,89,0.00,,,1.86,CWS Microserver 1.4,2013-05-27 00:53:00,
2013-05-26 19:58:00,52.5,49.5,30.04,ESE,104,12.8,20.8,89,0.00,,,1.86,CWS Microserver 1.4,2013-05-27 00:58:00,
2013-05-26 20:03:00,52.7,49.7,30.04,ESE,102,15.0,19.8,89,0.00,,,1.86,CWS Microserver 1.4,2013-05-27 01:03:00,
2013-05-26 20:08:00,52.5,49.4,30.04,East,94,14.5,19.8,89,0.00,,,1.86,CWS Microserver 1.4,2013-05-27 01:08:00,
2013-05-26 20:13:00,52.7,49.6,30.03,ESE,121,9.4,19.3,89,0.00,,,1.86,CWS Microserver 1.4,2013-05-27 01:13:00,
2013-05-26 20:18:00,52.5,49.5,30.03,East,94,8.3,19.3,89,0.00,,,1.86,CWS Microserver 1.4,2013-05-27 01:18:00,
2013-05-26 20:23:00,52.5,49.3,30.04,ESE,103,10.1,16.0,89,0.00,,,1.86,CWS Microserver 1.4,2013-05-27 01:23:00,
2013-05-26 20:28:00,52.5,49.3,30.03,ESE,103,14.6,16.9,88,0.00,,,1.86,CWS Microserver 1.4,2013-05-27 01:28:00,
2013-05-26 20:33:00,52.7,49.5,30.04,ESE,106,4.5,17.5,89,0.00,,,1.86,CWS Microserver 1.4,2013-05-27 01:33:00,
2013-05-26 20:38:00,52.7,49.4,30.05,ESE,123,10.6,17.9,88,0.00,,,1.86,CWS Microserver 1.4,2013-05-27 01:38:00,
2013-05-26 20:43:00,52.7,49.3,30.05,ESE,113,9.5,20.2,88,0.00,,,1.86,CWS Microserver 1.4,2013-05-27 01:43:00,
2013-05-26 20:48:00,52.7,49.4,30.05,ESE,118,11.6,20.2,88,0.00,,,1.86,CWS Microserver 1.4,2013-05-27 01:48:00,
2013-05-26 20:53:00,52.7,49.2,30.06,SE,138,11.1,15.4,88,0.00,,,1.86,CWS Microserver 1.4,2013-05-27 01:53:00,
2013-05-26 20:58:00,52.7,49.2,30.06,ESE,115,8.9,15.2,88,0.00,,,1.86,CWS Microserver 1.4,2013-05-27 01:58:00,
2013-05-26 21:03:00,52.7,49.4,30.05,ESE,110,9.7,12.6,88,0.00,,,1.86,CWS Microserver 1.4,2013-05-27 02:03:00,
2013-05-26 21:08:00,52.5,49.3,30.05,ESE,111,5.4,12.5,89,0.00,,,1.86,CWS Microserver 1.4,2013-05-27 02:08:00,
2013-05-26 21:13:00,52.5,49.5,30.05,ESE,114,11.8,12.2,89,0.00,,,1.86,CWS Microserver 1.4,2013-05-27 02:13:00,
2013-05-26 21:18:00,52.7,49.3,30.06,SE,133,9.1,13.0,88,0.00,,,1.86,CWS Microserver 1.4,2013-05-27 02:18:00,
2013-05-26 21:23:00,52.7,49.2,30.07,SE,125,10.1,13.4,88,0.00,,,1.86,CWS Microserver 1.4,2013-05-27 02:23:00,
2013-05-26 21:28:00,52.7,49.3,30.06,SE,131,6.6,13.4,88,0.00,,,1.86,CWS Microserver 1.4,2013-05-27 02:28:00,
2013-05-26 21:33:00,52.7,49.4,30.06,ESE,106,12.5,12.7,88,0.00,,,1.86,CWS Microserver 1.4,2013-05-27 02:33:00,
2013-05-26 21:43:00,52.5,49.1,30.05,SE,125,18.4,19.5,88,0.00,,,1.86,CWS Microserver 1.4,2013-05-27 02:43:00,
2013-05-26 21:48:00,52.5,49.2,30.05,ESE,113,11.6,19.5,88,0.00,,,1.86,CWS Microserver 1.4,2013-05-27 02:48:00,
2013-05-26 21:53:00,52.5,49.2,30.05,ESE,118,10.7,18.4,88,0.00,,,1.86,CWS Microserver 1.4,2013-05-27 02:53:00,
2013-05-26 21:58:00,52.5,49.2,30.05,ESE,108,12.3,18.1,88,0.00,,,1.86,CWS Microserver 1.4,2013-05-27 02:58:00,
2013-05-26 22:03:00,52.5,49.2,30.03,ESE,117,10.6,19.9,88,0.01,,,1.87,CWS Microserver 1.4,2013-05-27 03:03:00,
2013-05-26 22:08:00,52.5,49.3,30.01,SE,126,19.9,22.6,88,0.01,,,1.87,CWS Microserver 1.4,2013-05-27 03:08:00,
2013-05-26 22:13:00,52.3,49.2,30.03,ESE,107,9.7,22.6,89,0.01,,,1.87,CWS Microserver 1.4,2013-05-27 03:13:00,
2013-05-26 22:18:00,52.3,49.3,30.03,ESE,115,5.3,20.6,89,0.01,,,1.87,CWS Microserver 1.4,2013-05-27 03:18:00,
2013-05-26 22:23:00,52.3,49.3,30.02,East,92,10.0,12.6,89,0.01,,,1.87,CWS Microserver 1.4,2013-05-27 03:23:00,
2013-05-26 22:28:00,52.3,49.3,30.00,ESE,103,10.5,15.0,89,0.01,,,1.87,CWS Microserver 1.4,2013-05-27 03:28:00,
2013-05-26 22:33:00,52.3,49.3,30.00,East,99,10.9,17.2,89,0.01,,,1.87,CWS Microserver 1.4,2013-05-27 03:33:00,
2013-05-26 22:38:00,52.3,49.3,29.99,East,91,12.0,18.5,89,0.01,,,1.87,CWS Microserver 1.4,2013-05-27 03:38:00,
2013-05-26 22:43:00,52.3,49.3,29.98,East,101,11.6,21.5,89,0.01,,,1.87,CWS Microserver 1.4,2013-05-27 03:43:00,
2013-05-26 22:48:00,52.3,49.4,29.97,East,90,21.2,26.3,89,0.01,,,1.87,CWS Microserver 1.4,2013-05-27 03:48:00,
2013-05-26 22:53:00,52.3,49.4,29.94,East,87,24.1,31.6,89,0.01,,,1.87,CWS Microserver 1.4,2013-05-27 03:53:00,
2013-05-26 22:58:00,52.1,49.3,29.92,East,95,18.8,31.6,90,0.01,,,1.87,CWS Microserver 1.4,2013-05-27 03:58:00,
2013-05-26 23:03:00,52.1,49.3,29.91,East,92,16.8,31.4,90,0.00,,,1.87,CWS Microserver 1.4,2013-05-27 04:03:00,
2013-05-26 23:08:00,52.1,49.4,29.90,East,92,25.6,34.4,90,0.00,,,1.87,CWS Microserver 1.4,2013-05-27 04:08:00,
2013-05-26 23:13:00,52.1,49.4,29.87,East,92,27.8,35.9,90,0.00,,,1.87,CWS Microserver 1.4,2013-05-27 04:13:00,
2013-05-26 23:18:00,52.1,49.4,29.87,East,95,30.6,35.9,90,0.00,,,1.87,CWS Microserver 1.4,2013-05-27 04:18:00,
2013-05-26 23:23:00,52.3,49.5,29.92,East,82,23.4,37.2,90,0.00,,,1.87,CWS Microserver 1.4,2013-05-27 04:23:00,
2013-05-26 23:28:00,52.5,49.6,29.97,NE,49,9.2,37.2,89,0.00,,,1.87,CWS Microserver 1.4,2013-05-27 04:28:00,
2013-05-26 23:33:00,52.5,49.5,29.97,East,94,15.3,27.7,89,0.00,,,1.87,CWS Microserver 1.4,2013-05-27 04:33:00,
2013-05-26 23:38:00,52.5,49.4,29.97,SE,128,16.8,21.7,89,0.00,,,1.87,CWS Microserver 1.4,2013-05-27 04:38:00,
2013-05-26 23:43:00,52.7,49.6,29.99,SE,133,11.0,21.7,89,0.00,,,1.87,CWS Microserver 1.4,2013-05-27 04:43:00,
2013-05-26 23:48:00,52.7,49.5,29.99,SE,142,15.2,23.0,89,0.00,,,1.87,CWS Microserver 1.4,2013-05-27 04:48:00,
2013-05-26 23:53:00,52.7,49.6,29.97,SE,128,22.7,23.6,89,0.00,,,0.00,CWS Microserver 1.4,2013-05-27 04:53:00,
2013-05-26 23:58:00,52.7,49.6,29.98,SE,143,12.9,25.9,89,0.00,,,0.00,CWS Microserver 1.4,2013-05-27 04:58:00,